Location: Jackson Park
(37.2862°N, 79.9123°W)
Time: 01:52:57
(UTC+00:00)

Tiros 1 despin weight - Pass Details

Date: 11 May 2026
Orbit: 554 x 591 km, 48.2° (Epoch: 6 June)

Event Time Altitude Azimuth Distance (km) Brightness Sun altitude
Rises 13:37:46 0° 280° (W) 2,736 ? 38.7°
Reaches altitude 10° 13:40:27 10° 296° (WNW) 1,837 ? 39.3°
Maximum altitude 13:43:42 21° 347° (NNW) 1,259 ? 39.9°
Drops below altitude 10° 13:46:57 10° 39° (NE) 1,834 ? 40.5°
Sets 13:49:38 0° 55° (NE) 2,729 ? 41.1°
